sat.trackr.live / text

‹ back to catalog

STARLINK-30758

NORAD 58133 · 2023-162R

PAYLOAD ACTIVE UNKNOWN

§ Identity

Operator
Country
US
Launch date
2023-10-22
Launch site
AFETR
Launch vehicle
Mass (kg)
RCS (m²)

Purposes: comms

External: N2YO · Heavens-Above · Gunter

§ Orbital elements

Epoch: 2026-09-20T22:07:50.477664Z

Period
94.27 min
Inclination
42.9998°
Eccentricity
0.0001297
Mean motion
15.27578954 rev/d
Perigee alt
482.2 km
Apogee alt
483.9 km
Semi-major
6,861.2 km
B*
1.3071e-5
RAAN
106.6606°
Arg perigee
267.9844°
Mean anomaly
92.0859°
Rev number
16,220

§ Raw data

STARLINK-307581 58133U 23162R   26263.92211201  .00000098  00000+0  13071-4 0  99932 58133  42.9998 106.6606 0001297 267.9844  92.0859 15.27578954162204

JSON: /api/v1/satellites/58133 · /tle

For live sub-satellite position, see the globe view (requires WebGL).

§ Visibility from observer

Set your observer location to see the next 7 days of passes ≥ 10°. The values pass through the URL so the page stays shareable.

No JS? Fill the form by hand. The geolocation button needs JavaScript.